Weather in Verkhnenazarovskoye

Russia / Republic of Adygea     45°00′20″N   39°45′05″E
temp.,
°C
wind,
m/s
gust,
m/s
humid.,
%
clouds,
%
prec.,
mm/h
press.,
hPa
HPBL,
m
6 may, thu
thu600:00+8e38764 0.0 1015131
03:00+8e3688100 0.0 1014103
06:00+8e348883 0.0 101490
09:00+15ese227093 0.0 1013372
12:00+20w125669 0.0 1012795
15:00+21nnw125087 0.0 10111181
18:00+20ese2266100 0.0 101118
21:00+16s1170100 0.0 101211
7 may, fri
fri700:00+12wsw238664 0.0 101349
03:00+10w34715 0.1 101450
06:00+9wsw347688 0.0 101671
09:00+16wsw48592 0.0 1017465
12:00+20w68534 0.0 10171187
15:00+20w675525 0.0 10171317
18:00+18wsw367022 0.0 1017223
21:00+13ssw127338 0.0 101810
8 may, sat
sat800:00+11se11814 0.0 101810
03:00+11se339167 0.0 101634
06:00+11s119077 0.0 101621
09:00+17ese1173100 0.0 1015293
12:00+21ene1160100 0.0 1014749
15:00+22sse0155100 0.0 1013790
18:00+21ese3474100 0.0 101287
21:00+16ese228447 0.0 101117
9 may, sun
sun900:00+16ese2284100 0.0 100923
03:00+14wsw4884100 0.1 1009182
06:00+12wnw4896100 1.1 1009255
09:00+12sw3897100 5.4 1011458
12:00+8nw81395100 1.1 1015792
15:00+6nw7992100 2.1 10201040
18:00+7nw51092100 0.4 10231042
21:00+7nw378799 0.7 1025326
10 may, mon
mon1000:00+6wsw469299 0.0 1025128
03:00+6ssw5992100 0.1 1024218
06:00+6sw4794100 0.1 1024275
09:00+11nw5776100 1.1 1023566
12:00+12nw5665100 0.9 10231399
15:00+10nw7977100 1.4 10231033
18:00+7w6994100 1.7 1023921
21:00+6sw81196100 6.8 1021840